[[{"header":{"parameterUnit":"m.s-1","parameterCategory":1,"la1":30.2992,"la2":30.254,"lo1":-89.0895,"lo2":-89.0443,"dy":0.0025,"dx":0.0025,"nx":19,"ny":19,"refTime":"2026-05-24T21:00:00:Z","depth":0,"parameterNumber":2,"parameterNumberName":"U-component_of_WINDS"},"data":[0,0,0,-3.0753,-3.075,-3.0573,-3.0572,-3.0398,-3.0397,0,0,0,0,0,0,0,0,0,0,0,-3.0842,-3.0842,-3.0754,-3.075,-3.0573,-3.0572,-3.0398,-3.0397,0,0,0,0,0,0,0,0,0,0,0,-3.0842,-3.0842,-3.0842,-3.075,-3.0573,-3.0571,-3.0399,-3.0513,0,0,0,0,0,0,0,0,0,0,-3.0676,-3.0793,-3.0842,-3.0842,-3.0749,-3.0573,-3.0571,-3.0517,-3.0506,-3.0503,0,-3.0513,0,-3.0453,-3.0389,-3.0389,0,0,0,-3.0722,-3.0803,-3.0723,-3.0842,-3.0748,-3.0574,-3.0645,-3.051,-3.0497,-3.0488,-3.051,-3.0502,-3.045,-3.0389,-3.0388,-3.047,-3.0472,0,0,-3.0732,-3.0828,-3.0733,-3.0717,-3.0751,-3.0651,-3.064,-3.0501,-3.053,-3.0509,-3.0497,-3.0447,-3.0388,-3.0387,-3.0469,-3.0471,0,0,0,-3.0779,-3.0837,-3.0758,-3.0725,-3.069,-3.0646,-3.0634,-3.0536,-3.0503,-3.0494,-3.0445,-3.0387,-3.0386,-3.0467,-3.047,-3.0648,0,0,0,-3.0784,-3.0864,-3.0764,-3.0821,-3.0694,-3.0612,-3.0673,-3.0513,-3.0494,-3.0446,-3.0387,-3.0385,-3.0465,-3.0468,-3.0638,-3.0716,0,0,0,-3.0841,-3.087,-3.0857,-3.0827,-3.0754,-3.0611,-3.0569,-3.0506,-3.0466,-3.0389,-3.0384,-3.0463,-3.0468,-3.063,-3.0702,-3.0766,0,0,0,-3.0929,-3.1017,-3.0861,-3.0939,-3.0757,-3.0724,-3.0569,-3.0539,-3.0495,-3.0387,-3.0465,-3.0469,-3.0628,-3.0694,-3.0758,-3.0838,-3.088,0,0,-3.1093,-3.104,-3.1077,-3.0933,-3.0954,-3.0743,-3.0787,-3.0654,-3.0557,-3.0504,-3.0504,-3.0641,-3.0701,-3.0764,-3.1082,-3.1117,0,0,0,-3.1162,-3.1191,-3.1175,-3.1138,-3.104,-3.0961,-3.0812,-3.0761,-3.0712,-3.0551,-3.0678,-3.0711,-3.0744,-3.0777,-3.0807,-3.0828,-3.0489,-3.0488,-3.0488,-3.1532,-3.1405,-3.1459,-3.1311,-3.1277,-3.1121,-3.1081,-3.0986,-3.0866,-3.0899,-3.0883,-3.1092,-3.1135,-3.1156,-3.1181,-3.0914,-3.0914,-3.0915,-3.0915,-3.176,-3.1781,-3.162,-3.1615,-3.148,-3.1472,-3.1324,-3.124,-3.1212,-3.1094,-3.1116,-3.0999,-3.1198,-3.1213,-3.0928,-3.0925,-3.0924,-3.0923,-3.0922,-3.199,-3.1977,-3.1916,-3.185,-3.1812,-3.1656,-3.1638,-3.1513,-3.1395,-3.1418,-3.1387,-3.1383,-3.1365,-3.1412,-3.1412,-3.1413,-3.1414,-3.1414,-3.1415,-3.2252,-3.2177,-3.2178,-3.2081,-3.2041,-3.1971,-3.1815,-3.177,-3.1689,-3.1599,-3.1598,-3.1476,-3.1242,-3.1186,-3.1425,-3.1423,-3.1422,-3.1421,-3.142,-3.2533,-3.2449,-3.2452,-3.2412,-3.2286,-3.2256,-3.2097,-3.2017,-3.1962,-3.1956,-3.1827,-3.1675,-3.1611,-3.1586,-3.1539,-3.1855,-3.1855,-3.1855,-3.1855,-3.2728,-3.2683,-3.2656,-3.26,-3.253,-3.2387,-3.239,-3.2268,-3.2128,-3.2085,-3.2021,-3.1948,-3.1929,-3.1875,-3.1845,-3.1799,-3.2174,-3.2174,-3.2174,-3.2893,-3.2836,-3.2865,-3.2729,-3.2621,-3.253,-3.2529,-3.2469,-3.2292,-3.2185,-3.2049,-3.2036,-3.1916,-3.1883,-3.1776,-3.1731,-3.1645,0,0]},{"header":{"parameterUnit":"m.s-1","parameterCategory":1,"la1":30.2992,"la2":30.254,"lo1":-89.0895,"lo2":-89.0443,"dy":0.0025,"dx":0.0025,"nx":19,"ny":19,"refTime":"2026-05-24T21:00:00:Z","depth":0,"parameterNumber":3,"parameterNumberName":"V-component_of_WINDS"},"data":[0,0,0,-0.9808,-0.9809,-0.9882,-0.9882,-0.9952,-0.9953,0,0,0,0,0,0,0,0,0,0,0,-0.9775,-0.9775,-0.9807,-0.9809,-0.9882,-0.9882,-0.9952,-0.9953,0,0,0,0,0,0,0,0,0,0,0,-0.9775,-0.9775,-0.9775,-0.9809,-0.9882,-0.9882,-0.9952,-0.9905,0,0,0,0,0,0,0,0,0,0,-0.9838,-0.9797,-0.9775,-0.9775,-0.981,-0.9882,-0.9882,-0.9903,-0.9908,-0.991,0,-0.9912,0,-0.9933,-0.9956,-0.9956,0,0,0,-0.9817,-0.9793,-0.9823,-0.9775,-0.981,-0.9881,-0.9851,-0.9906,-0.9911,-0.9916,-0.9913,-0.9916,-0.9934,-0.9957,-0.9957,-0.9946,-0.9945,0,0,-0.9813,-0.9782,-0.9819,-0.9826,-0.9816,-0.9849,-0.9853,-0.991,-0.9903,-0.9913,-0.9918,-0.9936,-0.9957,-0.9957,-0.9946,-0.9946,0,0,0,-0.9796,-0.9778,-0.9807,-0.9822,-0.9837,-0.9851,-0.9856,-0.99,-0.9912,-0.9919,-0.9936,-0.9957,-0.9958,-0.9947,-0.9946,-0.9892,0,0,0,-0.9794,-0.9769,-0.9805,-0.9787,-0.9836,-0.987,-0.9845,-0.9908,-0.9916,-0.9936,-0.9957,-0.9958,-0.9947,-0.9946,-0.9895,-0.9872,0,0,0,-0.9774,-0.9766,-0.9773,-0.9785,-0.9815,-0.987,-0.9886,-0.9911,-0.9926,-0.9956,-0.9959,-0.9948,-0.9947,-0.9897,-0.9876,-0.9856,0,0,0,-0.9743,-0.9727,-0.9772,-0.976,-0.9814,-0.9837,-0.9886,-0.9905,-0.9925,-0.9958,-0.9947,-0.9946,-0.9898,-0.9878,-0.9859,-0.9833,-0.982,0,0,-0.9705,-0.9721,-0.9716,-0.9759,-0.9765,-0.9829,-0.9827,-0.9876,-0.9907,-0.993,-0.9931,-0.9894,-0.9876,-0.9857,-0.9764,-0.9753,0,0,0,-0.9693,-0.9689,-0.9697,-0.9715,-0.9751,-0.9778,-0.983,-0.9847,-0.9868,-0.9914,-0.9885,-0.9875,-0.9865,-0.9854,-0.9845,-0.9836,-0.9941,-0.9941,-0.9941,-0.9593,-0.9633,-0.9626,-0.9674,-0.9689,-0.9741,-0.9756,-0.9787,-0.9826,-0.9817,-0.9824,-0.9762,-0.9748,-0.9742,-0.9733,-0.9816,-0.9816,-0.9816,-0.9815,-0.9538,-0.9536,-0.9584,-0.9594,-0.9635,-0.9643,-0.969,-0.9715,-0.9726,-0.9762,-0.9755,-0.9788,-0.9729,-0.9723,-0.9812,-0.9812,-0.9813,-0.9813,-0.9814,-0.9475,-0.9481,-0.9501,-0.9527,-0.9541,-0.959,-0.9597,-0.9636,-0.9672,-0.9665,-0.9673,-0.9674,-0.9677,-0.9667,-0.9666,-0.9666,-0.9666,-0.9666,-0.9666,-0.94,-0.9425,-0.9427,-0.9461,-0.9474,-0.9496,-0.9544,-0.9558,-0.9582,-0.9609,-0.9609,-0.9644,-0.9718,-0.9733,-0.9662,-0.9663,-0.9663,-0.9664,-0.9664,-0.9325,-0.9347,-0.935,-0.9363,-0.9403,-0.9411,-0.946,-0.9483,-0.9499,-0.95,-0.9537,-0.9586,-0.9605,-0.9612,-0.9625,-0.9531,-0.9531,-0.9531,-0.9531,-0.9269,-0.9283,-0.9292,-0.9309,-0.933,-0.9373,-0.937,-0.9405,-0.9445,-0.9457,-0.9476,-0.9498,-0.9504,-0.9519,-0.9528,-0.9541,-0.9427,-0.9427,-0.9427,-0.9223,-0.924,-0.9232,-0.9271,-0.9303,-0.9329,-0.9326,-0.9341,-0.9392,-0.9424,-0.9466,-0.947,-0.9505,-0.9515,-0.9546,-0.956,-0.9584,0,0]}]]